TimeCEST,TemperatureF,Dew PointF,Humidity,Sea Level PressureIn,VisibilityMPH,Wind Direction,Wind SpeedMPH,Gust SpeedMPH,PrecipitationIn,Events,Conditions,WindDirDegrees,DateUTC
2:00 AM,54,52,90,30.02,,WSW,4.5,,,,,240,2012-10-05 00:00:00
4:45 AM,50.0,48.2,94,30.01,-9999.0,South,4.6,-,N/A,,Clear,180,2012-10-05 02:45:00
5:45 AM,50.0,48.2,94,30.04,-9999.0,SSW,4.6,-,N/A,,Clear,200,2012-10-05 03:45:00
6:15 AM,48.2,48.2,100,30.04,-9999.0,SSW,5.8,-,N/A,,Clear,200,2012-10-05 04:15:00
6:45 AM,48.2,46.4,93,30.04,5.0,Calm,Calm,-,N/A,,Partly Cloudy,0,2012-10-05 04:45:00
7:00 AM,-9999,-9999,N/A,-9999,-9999.0,SSW,5.8,-,N/A,,Clear,200,2012-10-05 05:00:00
7:15 AM,48.2,46.4,93,30.06,3.1,South,2.3,-,N/A,,Scattered Clouds,170,2012-10-05 05:15:00
7:21 AM,48.2,48.2,100,30.06,3.1,West,1.2,-,N/A,,Scattered Clouds,260,2012-10-05 05:21:00
7:45 AM,50.0,48.2,94,30.06,3.1,South,2.3,-,N/A,,Mostly Cloudy,170,2012-10-05 05:45:00
8:00 AM,49,48,95,30.07,3,South,2.2,,,,Mist,170,2012-10-05 06:00:00
8:15 AM,53.6,51.8,94,30.09,3.7,WNW,5.8,-,N/A,,Mostly Cloudy,290,2012-10-05 06:15:00
8:45 AM,55.4,51.8,88,30.09,3.7,WNW,8.1,-,N/A,,Scattered Clouds,290,2012-10-05 06:45:00
9:15 AM,55.4,53.6,94,30.12,-9999.0,WNW,6.9,-,N/A,,Clear,300,2012-10-05 07:15:00
9:45 AM,59.0,51.8,77,30.12,6.2,North,6.9,-,N/A,,Mostly Cloudy,10,2012-10-05 07:45:00
10:00 AM,-9999,-9999,N/A,-9999,6.2,North,10.4,-,N/A,,Mostly Cloudy,360,2012-10-05 08:00:00
10:15 AM,59.0,50.0,72,30.12,6.2,NNE,13.8,-,N/A,,Mostly Cloudy,20,2012-10-05 08:15:00
10:45 AM,60.8,48.2,63,30.12,6.2,NNE,13.8,-,N/A,,Mostly Cloudy,30,2012-10-05 08:45:00
11:15 AM,60.8,48.2,63,30.12,6.2,North,10.4,-,N/A,,Mostly Cloudy,10,2012-10-05 09:15:00
11:45 AM,62.6,44.6,52,30.15,6.2,NE,10.4,-,N/A,,Mostly Cloudy,40,2012-10-05 09:45:00
12:15 PM,62.6,46.4,55,30.15,6.2,North,6.9,-,N/A,,Mostly Cloudy,10,2012-10-05 10:15:00
12:45 PM,62.6,46.4,55,30.15,6.2,NNE,5.8,-,N/A,,Mostly Cloudy,30,2012-10-05 10:45:00
1:00 PM,-9999,-9999,N/A,-9999,6.2,North,6.9,-,N/A,,Mostly Cloudy,10,2012-10-05 11:00:00
1:15 PM,64.4,44.6,49,30.15,6.2,WNW,2.3,-,N/A,,Mostly Cloudy,300,2012-10-05 11:15:00
1:45 PM,66.2,44.6,46,30.15,6.2,SW,2.3,-,N/A,,Mostly Cloudy,230,2012-10-05 11:45:00
2:00 PM,66,44,34,30.14,25,SW,2.2,,,,Partly Cloudy,230,2012-10-05 12:00:00
2:15 PM,66.2,46.4,49,30.15,6.2,South,3.5,-,N/A,,Mostly Cloudy,190,2012-10-05 12:15:00
2:45 PM,66.2,48.2,52,30.12,6.2,South,5.8,-,N/A,,Mostly Cloudy,190,2012-10-05 12:45:00
3:15 PM,66.2,46.4,49,30.12,6.2,SSW,5.8,-,N/A,,Mostly Cloudy,210,2012-10-05 13:15:00
3:45 PM,66.2,46.4,49,30.12,6.2,SSW,5.8,-,N/A,,Mostly Cloudy,210,2012-10-05 13:45:00
4:00 PM,-9999,-9999,N/A,-9999,-9999.0,WSW,8.1,-,N/A,,Clear,250,2012-10-05 14:00:00
4:15 PM,66.2,46.4,49,30.12,6.2,SW,8.1,-,N/A,,Mostly Cloudy,230,2012-10-05 14:15:00
4:45 PM,66.2,48.2,52,30.12,-9999.0,SW,5.8,-,N/A,,Clear,230,2012-10-05 14:45:00
5:15 PM,64.4,50.0,59,30.12,-9999.0,WSW,6.9,-,N/A,,Clear,240,2012-10-05 15:15:00
5:45 PM,62.6,50.0,63,30.12,-9999.0,SW,6.9,-,N/A,,Clear,230,2012-10-05 15:45:00
6:15 PM,59.0,50.0,72,30.12,-9999.0,SW,5.8,-,N/A,,Clear,230,2012-10-05 16:15:00
6:45 PM,59.0,50.0,72,30.12,-9999.0,WSW,4.6,-,N/A,,Clear,240,2012-10-05 16:45:00
7:15 PM,59.0,50.0,72,30.12,-9999.0,WSW,5.8,-,N/A,,Clear,240,2012-10-05 17:15:00
7:45 PM,57.2,50.0,77,30.15,-9999.0,SW,5.8,-,N/A,,Clear,230,2012-10-05 17:45:00
8:00 PM,56,49,71,30.14,19,SW,4.5,,,,Partly Cloudy,230,2012-10-05 18:00:00
8:04 PM,-9999,-9999,N/A,-9999,-9999.0,North,-9999.0,-,N/A,,Unknown,0,2012-10-05 18:04:00